Location: ??????
(44.5958°N, 34.0092°E)
Time: 17:20:47
(UTC+00:00)

Cosmos 2322 Rocket - Pass Details

Date: 06 June 2020
Orbit: 834 x 850 km, 71.0° (Epoch: 04 July)

Event Time Altitude Azimuth Distance (km) Brightness Sun altitude
Exits shadow 00:02:24 23° 196° (SSW) 1,726 3.2 -15.5°
Maximum altitude 00:06:03 78° 113° (ESE) 858 2.2 -15.2°
Drops below altitude 10° 00:11:40 10° 28° (NNE) 2,452 6.0 -14.6°
Sets 00:14:07 0° 27° (NNE) 3,390 7.2 -14.4°
